Simultaneous Nadir Overpasses (SNOs) Predictions

Prediction of SNOs between GOES-14 and AQUA Satellite Orbit:

Table of predicted SNOs for the next 14.0 days since TLE Epoch: 2/28/2025
Index Date Time (GOES-14) GOES-14 Lat,Lon AQUA Lat,Lon Distance(km) Time Diff (sec)
1 03/02/2025 09:38:38 0.45,-107.97 0.09,-106.24 197.00 80
2 03/02/2025 21:55:29 -0.44,-107.96 -1.09,-110.96 341.61 80
3 03/04/2025 21:38:38 -0.45,-107.98 -0.09,-106.18 204.37 80
4 03/05/2025 09:55:20 0.44,-108.01 1.07,-110.86 325.21 80
5 03/07/2025 09:38:28 0.45,-108.03 0.02,-106.08 221.34 80
6 03/07/2025 21:55:18 -0.44,-108.01 -1.01,-110.80 316.90 80
7 03/09/2025 21:38:23 -0.45,-108.03 -0.03,-106.00 230.71 80
8 03/10/2025 09:55:03 0.44,-108.06 1.01,-110.68 298.59 80
9 03/12/2025 09:38:07 0.45,-108.08 -0.03,-105.88 250.43 80
10 03/12/2025 21:54:56 -0.43,-108.07 -0.96,-110.59 286.98 80
